Location: Gricignano
(40.9833°N, 14.2333°E)
Time: 00:00:20
(UTC+00:00)

Daily predictions for brighter satellites

Satellite Brightness Start Highest point End
(mag) Time Altitude Azimuth Time Altitude Azimuth Time Altitude Azimuth
Cosmos 2278 Rocket 4.2 02:31:43 23° ENE 02:31:43 23° ENE 02:34:18 10° NE
USA 215 4.4 02:25:35 10° E 02:30:30 35° NE 02:30:30 35° NE
Cosmos 1833 Rocket 3.9 02:52:14 38° E 02:52:14 38° E 02:56:14 10° SE
Cosmos 1763 Rocket 4.3 03:12:44 49° E 03:12:44 49° E 03:17:05 10° SE
Cosmos 1464 Rocket 4.2 03:28:11 10° N 03:34:31 68° E 03:40:43 10° SSE
YAOGAN 6 4.4 03:31:29 10° NNE 03:34:50 32° E 03:38:08 10° SSE
CENTAUR R/B 4.0 03:30:15 10° S 03:35:08 32° ESE 03:40:46 10° NE
H-2A R/B 3.9 03:43:37 10° NNE 03:47:08 41° E 03:50:39 10° S
COSMOS 2406 3.0 03:52:21 56° NW 03:53:32 75° WSW 03:59:09 10° SSE
Cosmos 2344 3.4 03:46:12 10° SSW 03:53:49 90° ESE 04:01:28 10° NE
Meteor 2-2 Rocket 4.2 03:53:01 52° NW 03:54:11 63° W 03:59:50 10° S
Cosmos 2082 Rocket 2.4 03:52:50 27° NNW 03:55:58 69° ENE 04:01:33 10° SSE
Cosmos 1850 Rocket 3.9 03:54:58 35° SSW 03:57:15 75° WNW 04:02:37 10° NNE
Tiangong 3.5 03:59:52 17° SSE 03:59:52 17° SSE 04:00:57 10° SSE
COSMOS 2455 2.8 03:57:05 51° WNW 03:58:26 64° WSW 04:04:22 10° SSE
Cosmos 1891 Rocket 4.5 03:53:06 10° NNW 03:59:30 67° W 04:05:53 10° S
Cosmos 1842 Rocket 3.4 03:58:54 57° NNW 03:59:48 85° W 04:04:14 10° S
SL-24 R/B 4.3 03:55:59 10° N 04:01:06 65° WNW 04:02:33 42° SW
Cosmos 468 Rocket 4.1 04:07:17 49° W 04:07:41 50° WSW 04:12:46 10° S
MOS 1-B Rocket 4.1 04:01:23 10° SSE 04:08:21 90° SW 04:14:23 10° NNW
Cosmos 2278 Rocket 2.8 04:13:39 35° NW 04:13:39 35° NW 04:18:28 10° N
USA 215 3.2 04:07:33 10° SE 04:14:06 79° SW 04:17:51 28° NW
Cosmos 2034 Rocket 3.9 04:09:46 10° N 04:15:59 82° W 04:22:14 10° S
Cosmos 1900 4.4 04:13:44 28° NNW 04:16:24 80° ENE 04:21:27 10° SSE
Cosmos 1943 Rocket 2.8 04:11:56 10° S 04:17:28 59° ESE 04:23:02 10° NNE
CZ-2C R/B 2.7 04:12:45 10° SSE 04:18:20 83° ENE 04:23:49 10° N
Cosmos 1782 4.4 04:15:12 10° N 04:18:50 34° ENE 04:22:28 10° SE
SKYMED 2 3.5 04:17:28 10° SSE 04:21:49 89° W 04:26:01 11° NNW
BREEZE M DEB (TANK) 4.0 04:21:17 31° NW 04:21:53 32° NNW 04:24:38 10° NE
Cosmos 1816 Rocket 4.4 04:15:49 10° SSW 04:21:58 76° W 04:28:15 10° N
Cosmos 540 Rocket 3.5 04:25:26 25° NW 04:28:11 54° WSW 04:33:10 10° S
Cosmos 2221 3.3 04:32:05 31° W 04:32:05 31° W 04:35:35 10° SSW
Cosmos 1933 3.3 04:28:21 10° N 04:32:23 83° E 04:36:22 10° S
ADEOS 3.9 04:27:23 10° NNE 04:32:37 70° ESE 04:37:48 10° S
Cosmos 1741 Rocket 4.4 04:30:04 19° WSW 04:33:17 37° WNW 04:38:09 10° N
OAO 3 Rocket 4.1 04:31:21 21° WSW 04:34:13 42° S 04:38:50 10° ESE
Cosmos 1833 Rocket 3.6 04:34:00 25° W 04:34:28 25° WSW 04:39:00 10° SSW
Tsikada Rocket 3.9 04:28:49 10° SSW 04:34:59 77° W 04:41:14 10° N
BREEZE-M R/B 3.8 04:35:31 19° SW 04:35:31 19° SW 04:37:48 10° SSE
SL-8 R/B 4.5 04:35:05 27° NW 04:36:51 36° N 04:41:18 10° ENE
CZ-4B R/B 4.1 04:33:42 10° N 04:38:01 60° WNW 04:42:24 10° SSW
Meteor 1-31 Rocket 2.8 04:35:44 10° N 04:39:32 55° WNW 04:43:19 10° SSW
Cosmos 2151 2.9 04:36:27 10° SSW 04:40:40 60° W 04:44:56 10° N
Cosmos 1634 Rocket 4.2 04:37:49 10° N 04:44:10 78° E 04:50:24 10° S
CZ-4C R/B 2.6 04:45:13 10° S 04:48:25 73° WSW 04:51:34 10° NNW
Meteor 2-13 Rocket 4.5 04:43:18 10° S 04:49:26 89° E 04:55:35 10° N
Hubble Space Telescope 3.3 04:47:21 10° SSW 04:49:33 14° S 04:51:44 10° SE
Cosmos 1812 3.7 04:47:56 10° N 04:51:41 47° E 04:55:23 10° SSE
Cosmos 841 Rocket 3.8 04:48:36 14° NW 04:52:44 42° WSW 04:57:32 10° S
H-2A R/B 3.0 04:50:44 10° SE 04:54:43 47° ENE 04:58:49 10° N
Cosmos 2098 Rocket 2.9 04:53:10 10° S 04:56:21 67° E 05:00:14 10° NNE
Cosmos 1939 Rocket 3.9 04:54:55 10° NNE 04:58:47 47° E 05:02:33 10° S
Cosmos 1766 Rocket 4.2 04:55:02 10° S 04:59:19 58° E 05:03:35 10° NNE
BREEZE-M DEB (TANK) 4.2 04:42:19 14° WNW 04:59:49 83° SW 05:05:02 10° SE
Envisat 3.6 04:55:18 10° N 04:59:51 34° WNW 05:04:23 10° SW
SMAP 4.4 04:55:27 10° NNE 04:59:54 43° E 05:04:19 10° S
FALCON 9 DEB 2.6 04:58:29 10° SW 05:01:23 88° NNW 05:04:17 10° NE
DMSP B5D2-2 4.1 05:02:18 10° SSE 05:07:33 87° WSW 05:12:47 10° NNW
YAOGAN 6 4.2 05:05:38 10° NNW 05:07:58 16° WNW 05:10:18 10° WSW
Cosmos 1570 Rocket 4.1 05:02:49 10° NNW 05:07:59 60° WSW 05:13:08 10° S
Cosmos 2369 Rocket 2.6 05:03:09 10° SSW 05:08:41 68° ESE 05:14:14 10° NNE
COSMO-SKYMED 1 3.6 05:06:24 10° SSW 05:10:02 26° W 05:13:41 10° NW
FALCON 9 DEB 3.7 05:06:57 10° SW 05:10:15 59° SE 05:13:36 10° ENE
Aureole 1 Rocket 2.6 05:09:28 10° SW 05:12:32 39° WNW 05:15:22 10° N
FALCON 9 DEB 3.1 05:13:08 10° WSW 05:15:50 41° NNW 05:18:35 10° NE
Cosmos 1867 3.6 05:11:49 10° NNW 05:17:20 90° W 05:22:46 10° SSE
Cosmos 2084 Rocket 4.1 05:14:25 10° WSW 05:17:46 28° NW 05:21:09 10° NNE
NOSS 3-2 (A) 3.8 05:13:37 10° WSW 05:18:50 39° NW 05:24:48 10° NNE
APEX 2.5 05:17:05 10° NNW 05:19:50 62° WSW 05:22:51 10° SSE
Cosmos 921 Rocket 3.2 05:15:48 10° NNW 05:20:11 80° ENE 05:24:37 10° SSE
H-2A R/B 4.4 05:19:09 10° NW 05:20:52 13° WNW 05:22:35 10° W
FALCON 9 DEB 3.5 05:19:08 10° W 05:21:45 32° NNW 05:24:22 10° NE
NOSS 3-2 (C) 3.3 05:16:36 10° SW 05:22:01 62° NW 05:28:18 10° NNE
Cosmos 1328 Rocket 3.9 05:17:36 10° N 05:22:02 72° E 05:26:23 10° SSE
H-2A R/B 3.8 05:18:16 10° NNE 05:22:47 35° E 05:27:16 10° SSE
FALCON 9 DEB 2.8 05:22:02 10° WSW 05:24:52 52° NW 05:27:43 10° NE
CENTAUR R/B 2.8 05:19:49 10° WSW 05:25:26 46° NW 05:32:08 10° NNE
NOAA 12 4.1 05:20:31 10° N 05:25:47 72° WNW 05:31:01 10° SSW
Cosmos 968 Rocket 3.6 05:20:47 10° SW 05:25:49 52° WNW 05:30:51 10° N
Cosmos 1151 Rocket 3.0 05:23:53 10° NNW 05:28:15 67° W 05:32:34 10° S
CZ-4B R/B 3.0 05:27:57 10° N 05:31:20 39° WNW 05:34:40 10° SW
Cosmos 2208 Rocket 4.4 05:27:01 10° NNW 05:32:13 46° WSW 05:37:20 10° S
Gbstr 26 Del rocket 2.9 05:28:39 10° NW 05:32:36 89° SW 05:37:14 10° SE
Meteor 2-6 Rocket 4.1 05:27:41 10° NNW 05:33:10 81° W 05:38:32 10° S
